Dewpoint
19 19 19 19 19 18 17 17 16 15 15 15 15 15 15 15 15 14 14 14 14 14 14 15 15 14 15 13 15 13 13 10 9 7 6 6 7 6 9 8 10 9 10 2 -1 -5 -8 -9 -9 -8 -6 -4 -2 -1 6 13 5 5 10 11 9 8 19
18 18 19 19 19 18 18 18 16 15 15 15 15 15 15 14 15 15 14 15 14 15 15 15 17 15 15 14 16 17 16 14 11 13 9 7 9 6 9 5 8 9 8 9 -6 -5 -10 -10 -10 -10 -9 -7 -5 -2 3 8 6 3 7 8 9 6 8
17 17 18 19 19 20 19 19 18 17 16 16 16 15 15 15 14 15 15 16 15 15 15 16 18 18 17 17 17 17 16 16 15 14 14 12 11 10 6 5 6 9 9 10 6 -3 -7 -11 -11 -10 -10 -9 -7 -3 -1 5 8 2 4 5 5 4 3
16 17 17 18 18 18 19 20 21 20 18 18 17 16 17 16 15 15 16 17 16 16 16 18 18 18 18 18 17 17 15 16 16 15 14 14 13 12 8 6 5 7 10 10 9 1 -3 -9 -10 -11 -11 -9 -8 -6 -4 3 7 2 2 2 5 2 1
15 16 16 17 17 17 18 18 19 20 21 21 19 18 18 18 20 19 19 18 18 19 19 19 18 18 19 18 18 17 16 16 16 16 15 14 13 12 12 11 10 10 10 10 10 10 4 -4 -9 -9 -11 -9 -9 -8 -6 0 5 2 3 2 2 0 -1
14 15 15 16 16 17 17 18 18 18 19 20 21 21 20 21 21 20 20 20 19 20 20 20 20 19 19 19 19 18 18 18 17 17 16 15 14 13 13 12 12 11 10 10 9 10 10 0 -5 -8 -10 -9 -9 -8 -7 -1 4 2 7 5 3 3 2
13 13 15 15 16 16 17 17 18 18 18 19 20 21 22 22 22 20 20 20 20 21 21 21 20 20 20 20 20 19 19 19 18 17 17 17 16 15 14 13 13 12 12 11 11 11 12 8 3 -3 -5 -8 -8 -8 -4 0 2 2 3 4 3 2 1
12 12 14 14 14 15 15 16 17 17 18 20 22 22 22 22 22 22 22 21 21 21 21 21 21 21 21 21 21 20 20 20 18 18 17 17 17 16 15 14 13 13 13 12 12 10 11 10 7 2 -0 -5 -6 -7 -5 -3 -0 -0 -1 0 1 2 1
11 11 12 12 13 13 13 15 16 16 18 20 22 23 23 23 23 22 22 22 21 21 21 21 21 21 21 21 22 22 21 21 20 18 17 17 18 17 16 15 14 13 12 11 12 11 12 11 9 7 3 -1 -4 -5 -6 -6 -2 1 1 1 -1 1 3
10 11 11 11 11 12 12 13 13 15 20 22 21 22 23 23 23 23 22 22 21 21 21 21 21 22 22 22 22 22 22 22 21 21 19 18 18 17 16 15 14 13 12 12 11 11 11 11 10 8 4 1 -2 -4 -5 -3 -4 -3 -3 -0 0 0 1
9 9 9 9 10 10 10 11 12 17 22 22 22 21 22 21 22 23 22 22 22 21 21 21 21 21 22 22 22 22 23 22 22 22 22 21 20 19 17 16 15 14 14 12 11 12 12 11 11 11 7 3 0 -3 -3 -1 -3 0 2 0 -2 -2 1
7 7 8 8 8 8 8 9 11 19 20 21 21 20 20 21 20 20 20 20 20 20 20 21 21 21 21 21 21 21 22 22 23 22 22 22 21 21 21 20 17 15 14 13 12 12 12 12 12 12 12 8 4 0 -2 1 3 3 3 3 1 0 1
5 5 6 6 5 6 6 6 10 18 19 19 20 21 19 16 16 16 16 17 17 17 18 18 19 19 20 20 21 21 21 21 21 22 23 22 22 21 21 21 22 20 17 15 14 13 12 12 12 12 11 11 7 7 3 2 2 4 3 4 3 1 1
3 3 4 4 3 3 4 3 8 15 17 18 19 20 16 14 13 13 14 14 14 14 15 16 16 16 17 19 20 20 20 20 20 20 20 21 21 21 21 21 21 21 20 18 15 14 13 14 14 12 13 13 11 8 5 4 4 6 5 5 4 6 4
1 1 2 1 1 1 2 0 10 13 15 16 17 18 14 12 11 10 11 12 12 12 12 13 13 14 15 16 17 18 19 18 18 19 19 19 19 20 20 20 20 20 20 20 18 16 16 16 16 15 14 13 12 10 9 9 8 7 7 7 7 2 3
-0 -0 -1 0 -1 -1 -0 0 10 13 15 16 16 16 11 10 9 8 9 9 10 10 11 12 12 13 13 14 14 16 18 19 19 18 17 17 17 18 19 19 20 22 22 20 20 19 18 17 17 18 15 14 12 11 11 9 8 8 7 5 1 1 -0
-2 -2 -2 -2 -2 -3 -1 -1 5 13 14 15 16 14 11 9 7 6 7 7 8 9 10 10 11 11 12 12 13 14 18 19 18 18 17 16 15 16 16 16 18 21 23 23 23 23 23 22 22 21 21 20 19 13 12 9 7 5 5 3 1 1 -0
-3 -3 -3 -3 -4 -2 -1 -3 -0 11 14 14 14 13 10 9 6 5 5 6 7 8 9 9 9 10 10 11 12 15 18 18 18 17 17 16 15 14 14 14 16 16 17 22 23 22 22 22 22 22 22 22 21 19 15 8 6 7 4 2 2 0 -0
-5 -5 -5 -5 -4 -1 -3 -4 -2 7 12 13 13 11 9 7 4 4 4 5 6 6 5 5 6 6 7 8 11 16 17 18 16 16 17 17 15 13 13 14 15 14 14 14 15 17 19 19 20 20 20 19 19 19 16 10 9 7 4 2 2 2 -0
-6 -7 -6 -5 -5 -5 -6 -5 -3 1 10 11 11 12 8 6 5 4 5 6 3 2 2 2 3 4 5 9 10 12 15 16 17 15 15 16 15 13 13 14 14 14 13 13 13 14 15 16 17 18 19 19 19 18 15 11 10 8 5 5 3 2 0
-8 -8 -8 -6 -6 -5 -5 -4 -3 -2 8 9 10 11 10 5 5 5 7 3 2 1 1 1 1 2 4 7 9 10 12 13 14 15 14 14 14 15 15 16 14 13 14 13 12 12 12 12 13 14 15 16 16 17 16 12 9 9 7 6 4 3 1
-10 -10 -9 -8 -7 -6 -6 -4 -2 -3 2 8 9 11 11 6 5 6 6 2 1 0 -0 1 1 1 3 6 12 13 14 14 14 15 8 10 16 15 13 10 12 14 12 12 12 11 10 10 10 11 12 13 14 14 15 12 9 8 7 7 6 4 2
-12 -11 -10 -9 -8 -7 -7 -6 -6 -3 -3 2 7 10 10 10 8 10 3 2 -1 -1 -0 -0 0 2 5 8 13 13 14 14 13 9 9 14 13 11 6 6 5 8 10 11 11 10 9 9 9 9 9 10 10 12 14 13 10 9 8 6 6 7 6
-12 -11 -11 -10 -9 -9 -9 -8 -8 -6 -3 -3 1 8 10 10 10 8 3 -0 -2 -2 -3 -3 1 2 9 10 11 11 12 12 5 6 11 10 5 2 1 -1 -0 2 5 7 9 9 8 8 8 8 8 8 9 10 11 13 12 9 8 7 6 7 6
-11 -10 -10 -11 -10 -10 -9 -9 -9 -9 -6 -4 -3 5 9 8 7 3 0 -4 -5 -5 -7 -5 5 6 6 6 7 7 5 -1 -2 0 0 -1 -1 -2 -5 -3 -3 -3 -1 1 4 6 7 7 7 7 7 9 9 9 9 9 10 10 8 8 6 6 4
-9 -6 -8 -10 -12 -12 -11 -11 -10 -9 -9 -6 -4 -2 3 4 3 -1 -3 -6 -7 -8 -9 -7 -3 -7 -6 -6 -6 -7 -8 -8 -8 -6 -5 -5 -5 -8 -7 -6 -4 -3 -2 -2 -0 2 4 6 6 6 6 7 7 6 6 7 6 5 5 6 5 4 3
-8 -5 -9 -10 -12 -13 -12 -11 -10 -10 -10 -8 -5 -2 -4 -3 -2 -5 -7 -9 -11 -11 -14 -12 -11 -10 -10 -10 -9 -9 -10 -10 -10 -11 -11 -12 -11 -10 -10 -7 -6 -5 -4 -3 -2 -0 1 3 5 7 5 4 4 4 5 5 4 4 3 3 4 3 2
-7 -5 -8 -11 -11 -12 -12 -11 -12 -11 -10 -7 -5 -4 -6 -6 -5 -9 -13 -14 -15 -15 -16 -16 -14 -15 -17 -16 -16 -16 -16 -16 -15 -14 -14 -15 -13 -13 -12 -9 -7 -7 -8 -7 -5 -4 -3 -1 1 3 5 4 3 3 3 3 3 3 2 1 1 0 -0
-4 -4 -7 -9 -10 -10 -11 -11 -12 -12 -5 -3 -2 -3 -8 -8 -8 -12 -16 -14 -14 -16 -19 -20 -21 -19 -19 -20 -19 -19 -18 -18 -18 -17 -17 -16 -15 -15 -14 -13 -15 -13 -12 -11 -9 -8 -7 -6 -3 -0 2 4 3 2 2 2 2 2 1 -0 -1 -2 -2
-4 -5 -8 -11 -11 -10 -11 -13 -13 -7 3 4 1 2 -4 -3 1 -8 -15 -16 -16 -18 -23 -23 -23 -22 -22 -22 -21 -21 -21 -21 -20 -20 -20 -19 -15 -17 -16 -16 -16 -15 -15 -14 -12 -10 -9 -8 -6 -5 -3 1 2 2 2 1 1 0 0 -1 -4 -4 -3
1 -0 -6 -10 -12 -10 -9 -11 -11 -9 2 3 2 3 2 -1 -7 -9 -15 -16 -21 -25 -24 -25 -25 -24 -23 -23 -23 -22 -22 -21 -22 -21 -21 -21 -20 -19 -18 -17 -18 -17 -16 -15 -14 -13 -11 -10 -9 -8 -6 -5 -2 0 1 0 -0 -0 -1 -3 -4 -5 -4
-1 -1 -2 -8 -10 -9 -13 -12 -12 -10 1 1 1 0 -2 -0 -1 -2 -9 -18 -20 -26 -26 -26 -27 -26 -26 -25 -25 -24 -23 -23 -23 -22 -22 -22 -22 -21 -20 -19 -19 -17 -17 -15 -16 -15 -15 -14 -12 -11 -9 -8 -6 -4 -2 -1 -2 -2 -2 -3 -3 -4 -5
-6 -6 -5 -4 -3 -1 -2 -10 -11 -8 -1 -0 -1 -2 -16 -8 -7 -18 -19 -23 -26 -29 -28 -28 -28 -28 -27 -27 -27 -26 -25 -24 -24 -24 -23 -23 -23 -22 -22 -21 -20 -17 -17 -17 -17 -17 -17 -16 -15 -13 -12 -10 -9 -7 -6 -4 -3 -3 -3 -3 -4 -5 -6
-17 -17 -16 -15 -13 -11 -10 -10 -8 -7 -9 -4 -4 -5 -9 -18 -19 -11 -19 -24 -29 -30 -30 -30 -30 -30 -29 -30 -28 -28 -27 -27 -27 -25 -25 -24 -24 -23 -23 -23 -21 -20 -20 -19 -19 -19 -18 -17 -17 -16 -16 -14 -12 -10 -9 -7 -5 -4 -4 -5 -5 -5 -6
-26 -22 -19 -20 -19 -18 -19 -19 -20 -18 -17 -16 -18 -19 -15 -12 -31 -31 -31 -31 -31 -30 -31 -31 -31 -32 -31 -31 -31 -30 -29 -30 -29 -28 -27 -26 -25 -25 -25 -25 -23 -22 -22 -22 -21 -21 -20 -19 -19 -19 -18 -17 -16 -14 -13 -11 -9 -7 -5 -5 -6 -5 -6
-29 -30 -22 -20 -20 -19 -20 -21 -21 -19 -18 -12 -14 -19 -24 -32 -32 -33 -32 -31 -32 -32 -31 -32 -32 -32 -33 -33 -32 -32 -32 -32 -31 -30 -29 -29 -27 -26 -27 -26 -24 -23 -24 -23 -23 -22 -21 -21 -21 -21 -20 -19 -19 -17 -16 -13 -11 -10 -8 -7 -6 -6 -6